Regional Weather Roundup
Issued by NWS

Home | Current Version | Previous Version | Graphics & Text | Print | Product List | Glossary Off
Versions: 1 2 3 4 5 6 7 8 9 10 11 12 13 14 15 16 17 18 19 20 21 22 23 24 25 26 27 28 29 30 31 32 33 34 35 36 37 38 39 40 41 42 43 44 45 46 47 48 49 50

000
ASUS43 KDMX 272007
RWRIA

WEATHER ROUNDUP FOR IOWA
NATIONAL WEATHER SERVICE DES MOINES IA
200 PM CST TUE JAN 27 2015

NOTE: "FAIR" INDICATES FEW OR NO CLOUDS BELOW 12,000 FEET WITH NO
SIGNIFICANT WEATHER AND/OR OBSTRUCTIONS TO VISIBILITY.

* - THESE STATIONS ARE NOT NWS STATIONS...THUS NOT UNDER NWS
QUALITY CONTROL.  THEY ALSO DO NOT REPORT WEATHER SUCH
AS PRECIPITATION OR FOG.

IAZ001>003-012>014-020>022-031>034-043>046-272100-
   NORTHWEST IOWA

CITY           SKY/WX    TMP DP  RH WIND       PRES   REMARKS
CARROLL *      SUNNY     45  34  65 SE9       30.10F
CHEROKEE *     SUNNY     43  37  81 SE10      30.08F
DENISON *      SUNNY     46  36  66 SE9       30.06F
LE MARS *      SUNNY     45  37  76 SE9G15    30.06F
ORANGE CITY *  SUNNY     45  36  70 S8        30.05F
SHELDON *      SUNNY     41  37  87 SE15      30.05F
SIOUX CITY     SUNNY     47  36  65 SE14      30.05F
SPENCER          N/A     41  34  76 S16       30.08F
STORM LAKE *   SUNNY     41  36  81 SE14      30.08F
$$

IAZ055>058-069>071-079>083-090>094-272100-
   SOUTHWEST IOWA

CITY           SKY/WX    TMP DP  RH WIND       PRES   REMARKS
ATLANTIC *     SUNNY     48  32  53 SE8       30.09S
AUDUBON *      SUNNY     46  36  66 S8        30.10F
CLARINDA *     SUNNY     52  32  46 S6        30.10F
COUNCIL BLFS * SUNNY     50  34  53 S12       30.06F
CRESTON *      SUNNY     46  32  57 SE9       30.11S
HARLAN  *      SUNNY     48  36  61 SE8       30.11F
LAMONI         SUNNY     47  31  53 VRB5      30.11F
RED OAK *      SUNNY     50  32  50 S9        30.09F
SHENANDOAH *   SUNNY     52  32  46 S10       30.09F
$$

IAZ047>049-059>061-072>074-084-272100-
   CENTRAL IOWA

CITY           SKY/WX    TMP DP  RH WIND       PRES   REMARKS
AMES           SUNNY     42  31  64 E6        30.13F
ANKENY *       SUNNY     43  32  65 SE6       30.13F
CHARITON *     SUNNY     45  32  61 CALM      30.13F
DES MOINES     MOSUNNY   45  30  55 SE6       30.14F
GRINNELL*      CLOUDY    36  30  80 E5        30.17S WCI  32
KNOXVILLE *    SUNNY     43  30  61 E8        30.13F
MARSHALLTOWN   CLOUDY    36  31  82 E9        30.14F WCI  29
PELLA *        PTSUNNY   43  32  65 SE6       30.16F
PERRY *          N/A     45  34  65 SE8       30.12F
$$

IAZ004>006-015-016-023>025-035-036-272100-
   NORTH CENTRAL IOWA

CITY           SKY/WX    TMP DP  RH WIND       PRES   REMARKS
ALGONA *       PTSUNNY   39  34  81 SE10      30.11F WCI  32
CLARION *      PTSUNNY   37  36  93 SE10      30.12F WCI  30
ESTHERVILLE    PTSUNNY   37  32  82 SE13      30.09F WCI  29
FORT DODGE *   SUNNY     43  34  70 SE9       30.11F
MASON CITY     CLOUDY    34  29  82 SE6       30.15F WCI  29
FOREST CITY *  CLOUDY    36  30  80 SE9       30.13S WCI  29
IOWA FALLS *   CLOUDY    37  32  81 SE8       30.14F WCI  31
$$

IAZ007>011-017>019-026>030-037>042-050>054-066-272100-
   NORTHEAST IOWA

CITY           SKY/WX    TMP DP  RH WIND       PRES   REMARKS
CEDAR RAPIDS   CLOUDY    32  26  78 E8        30.17S WCI  25
CHARLES CITY * CLOUDY    32  30  93 E7        30.17R WCI  26
CLINTON *      CLOUDY    27  19  74 N6        30.23R WCI  20
DECORAH *      CLOUDY    28  23  80 CALM      30.17S
DUBUQUE        CLOUDY    28  21  75 NE5       30.18S WCI  23
MONTICELLO *   CLOUDY    30  25  80 E6        30.18F WCI  24
OELWEIN *      CLOUDY    32  27  80 E8        30.17F WCI  25
WATERLOO       CLOUDY    33  27  78 E5        30.17F WCI  29
$$

IAZ064-065-067-068-078-272100-
   EAST CENTRAL IOWA

CITY           SKY/WX    TMP DP  RH WIND       PRES   REMARKS
DAVENPORT      CLOUDY    28  21  75 E7        30.20R WCI  21
IOWA CITY      CLOUDY    32  26  78 E7        30.20S WCI  26
MT. PLEASANT * CLOUDY    34  27  75 NE5       30.19R WCI  30
MUSCATINE *    CLOUDY    32  25  74 NE8       30.21R WCI  25
QUAD CITIES    CLOUDY    30  22  72 NE3       30.20R
$$

IAZ062-063-075>077-085>089-095>099-272100-
   SOUTHEAST IOWA

CITY           SKY/WX    TMP DP  RH WIND       PRES   REMARKS
BURLINGTON     CLOUDY    32  27  81 E6        30.18S WCI  26
FAIRFIELD *    CLOUDY    36  27  69 NE5       30.19R WCI  32
FORT MADISON * CLOUDY    34  28  80 NE5       30.19R WCI  30
KEOKUK *       CLOUDY    37  30  75 NE8       30.17R WCI  31
OSKALOOSA *    CLOUDY    37  30  75 CALM      30.17F
CENTERVILLE *    N/A     45  32  61 E5        30.15F
OTTUMWA        CLOUDY    38  29  70 E5        30.15F WCI  34
WASHINGTON *   CLOUDY    34  30  86 E5        30.19S WCI  30
$$

ABBREVIATIONS USED IN REMARKS
   TC - TEMPERATURES IN CELSIUS
  WCI - WIND CHILL INDEX
   HX - HEAT INDEX
  VSB - VISIBILITY
$$




USA.gov is the U.S. government's official web portal to all federal, state and local government web resources and services.